Location: ??????
(55.4348°N, 39.2112°E)
Time: 21:53:46
(UTC+00:00)

Cosmos 2056 Rocket - Pass Details

Date: 14 April 2024
Orbit: 739 x 799 km, 74.0° (Epoch: 23 May)

Event Time Altitude Azimuth Distance (km) Brightness Sun altitude
Rises 00:31:20 0° 332° (NNW) 3,281 7.0 -14.2°
Reaches altitude 10° 00:33:43 10° 333° (NNW) 2,357 6.2 -14.0°
Maximum altitude 00:39:06 80° 61° (ENE) 813 3.7 -13.4°
Drops below altitude 10° 00:44:31 10° 149° (SSE) 2,368 6.0 -12.8°
Sets 00:46:55 0° 150° (SSE) 3,296 6.7 -12.5°
